FLOCK 3P-45

Last updated on Wed Feb 14 2018 16:20:31 GMT+0000 (Coordinated Universal Time)

1 42005U 17008BK 18044.87563669 .00002285 00000-0 96951-4 0 9995 2 42005 97.4664 110.4975 0009707 87.6137 272.6211 15.24105718 55332

Satellite not in orbit

FLOCK 3P-45